Location: Chervonnoye
(48.6000°N, 34.4000°E)
Time: 22:08:49
(UTC+00:00)

RS-44 - Pass Details

Date: 27 November 2022
Orbit: 1174 x 1511 km, 82.5° (Epoch: 01 February)

Event Time Altitude Azimuth Distance (km) Brightness Sun altitude
Rises 23:41:15 0° 129° (SE) 4,326 ? -52.2°
Reaches altitude 10° 23:45:00 10° 112° (ESE) 3,419 ? -51.7°
Maximum altitude 23:50:05 18° 73° (ENE) 2,902 ? -51.0°
Drops below altitude 10° 23:55:22 10° 34° (NE) 3,579 ? -50.2°
Sets 23:59:23 0° 18° (NNE) 4,607 ? -49.7°
